User: anonymous   Login
Location: Owatonna
(44.0840°N, 93.2260°W)
Time: 05:44:03
(UTC-06:00)
Language:

Tiangong 1 - Orbit

View from above orbital plane
View from above orbital plane
View from above satellite
View from above satellite

Ground track
Ground track

The orbit data is extracted from the following two-line orbital elements,

1 37820U 11053A   14331.11348873  .00053373  00000-0  57637-3 0  6109
2 37820 042.7714 048.6217 0016937 192.1046 246.0698 15.62640974181643
Epoch (UTC): 27 November 2014 02:43:25
Eccentricity: 0.0016937
inclination: 42.7714°
perigee height: 368 km
apogee height: 391 km
right ascension of ascending node: 48.6217°
argument of perigee: 192.1046°
revolutions per day: 15.62640974
mean anomaly at epoch: 246.0698°
orbit number at epoch: 18164

The dashed part of the orbit path shows where the satellite is in the earth's shadow,  

DLR